Location: The Saddle
(36.8333°N, 80.3417°W)
Time: 22:35:35
(UTC-05:00)

Explorer 7 - Visible Passes

Search period start: 30 November 2023 00:00
Search period end: 10 December 2023 00:00
Orbit: 472 x 641 km, 50.3° (Epoch: 30 November)

Date Brightness Start Highest point End Pass type
(mag) Time Alt. Az. Time Alt. Az. Time Alt. Az.
30 Nov 8.3 18:17:56 10° W 18:21:00 24° NNW 18:23:06 15° NNE visible
01 Dec 8.6 18:15:00 10° WNW 18:17:42 19° NNW 18:19:51 13° NNE visible
02 Dec 8.8 18:12:05 10° WNW 18:14:26 16° NNW 18:16:33 11° NNE visible
03 Dec 8.9 18:09:15 10° NW 18:11:09 13° NNW 18:13:05 10° NNE visible
04 Dec 8.9 18:06:26 10° NW 18:07:53 12° N 18:09:20 10° NNE visible
05 Dec 9.0 18:03:37 10° NNW 18:04:36 11° N 18:05:34 10° N visible
06 Dec 9.0 18:00:46 10° N 18:01:18 10° N 18:01:49 10° N visible
07 Dec 9.0 17:57:36 10° N 17:57:58 10° N 17:58:21 10° N visible
08 Dec 8.9 17:53:52 10° N 17:54:37 10° N 17:55:22 10° NNE visible
09 Dec 8.8 17:50:01 10° N 17:51:14 11° N 17:52:27 10° NNE visible
